Location: Wheeling
(40.0640°N, 80.7210°W)
Time: 14:18:05
(UTC-05:00)

ITAMSAT 1 - Pass Details

Date: 01 November 2021
Orbit: 784 x 796 km, 98.9° (Epoch: 01 December)

Event Time Altitude Azimuth Distance (km) Brightness Sun altitude
Rises 20:10:15 0° 177° (S) 3,259 10.8 -21.5°
Reaches altitude 10° 20:12:36 10° 182° (S) 2,336 10.1 -22.0°
Maximum altitude 20:17:39 54° 259° (W) 949 8.3 -23.0°
Drops below altitude 10° 20:22:44 10° 337° (NNW) 2,359 10.4 -23.9°
Sets 20:25:08 0° 342° (NNW) 3,294 11.1 -24.4°
